DECAYED

STARLINK-3773, 52291 (Decayed)

Orbit data source: Space-Track

STARLINK-3773, 52291 was a payload satellite owned by SpaceX/Seattle (US) in LEO that was launched on Thu, 21 Apr 2022 UTC via an FALCON 9 launch vehicle from the Air Force Eastern Test Range (AFETR). Payload-class satellites include a variety of spacecraft equipped with specific instruments for various scientific and technological missions. These include communications satellites like Starlink; space stations such as the ISS; scientific satellites like the Hubble; Earth observation satellites from companies like Planet Labs, Umbra, and HawkEye 360; GPS; miniature CubeSats for education and research; and military/defense satellites.

Not visible in the next 10 days
Identifier
52291, 2022-041AG
Orbit
Decayed
Country
Flag of USUS
Related business
Manufacturer
SpaceX/Seattle
Mission
Decayed Commercial Communications
Bus & Motor
STARLINK, Unknown motor
Mass
297 kg wet, ~275 kg dry
Launch date (UTC)
2022-04-21 (4 years ago)
Launch vehicle
FALCON 9
Launch site
Air Force Eastern Test Range (AFETR)
Object type
Payload
Rocket body
Debris
Shape & HBR
Box + 1 Pan, 10.1 m
Radar Cross Section
11.087 m², Large (>1 m²)

Expand to show TLE details & history
Last TLE update: 10 months ago

TLE from 10 months ago
0 STARLINK-3773
1 52291U 22041AG  25251.73167285  .13221049  12591-4  18000-3 0  9998
2 52291  53.1638  78.6513 0007632 269.3655  90.6522 16.48667423188672
Epoch: 2025-09-08T17:33Z
TLE epoch observation values (Epoch: 2025-09-08T17:33:36.534Z)
Latitude
-0.00004°
Longitude
-172.78353°
Altitude
143.853 km
Speed
7.821 km/s
True Right ascension
05h 14m 36s
True Declination
0° 00' 00"
Sunlit
Object was in daylight at epoch
Visualization orbit readout
Latitude
Unknown
Longitude
Unknown
Altitude
Unknown
Speed
Unknown
Apparent Right ascension
Unknown
Apparent Declination
Unknown
Sunlit
N/A
Visualization observer readout
Local Sidereal Time
12:01:41
Azimuth
Unknown
Elevation
Unknown
Doppler factor
Unknown
Orbital elements
Apogee altitude
148.092 km
Perigee altitude
138.138 km
Semi-major axis
6,521.252 km
Eccentricity
0.00076
Inclination
53.1638°
RAAN
78.6513°
Arg. of periapsis
269.3655°
True anomaly
90.73965°
Mean anomaly
90.6522°
Eccentric anomaly
90.69592°
Mean motion
4.12142 °/min
Orbital period
87.35 mins
BSTAR
0.00018
Loading maneuver chart data...
Computing Atmospheric mass density...

Documentation

Showing up to 5 results
|